Flag for Germany Weather past 2 weeks in Wittmund, Lower Saxony, Germany

Now
54 °F

Passing clouds.


Feels Like: 52 °F
Forecast: 48 / 58 °F
Wind: 6 mph from Southwest

Location: Wittmundhaven

Current Time: Oct 25, 2014 at 8:38:19 PM

Latest Report: Oct 25, 2014 at 7:20 PM


Visibility: N/A

Pressure: 30.07 "Hg

Humidity: 72%

Dew point: 45 °F

Location of WittmundLocation

Historic Weather in Wittmund — Graph

°F

Wittmund temperature yesterday

Maximum temperature yesterday: 57 °F (at 3:20 PM)
Minimum temperature yesterday: 52 °F (at 7:20 AM)
Average temperature yesterday: 54 °F

Past Weeks' High & Low Weather Summary

 TemperatureHumidityPressure
High68 °F (Oct 19, 12:20 PM)100% (Oct 11, 3:20 AM)30.15 "Hg (Oct 11, 3:20 AM)
Low45 °F (Oct 11, 7:20 AM)58% (Oct 22, 10:20 PM)29.33 "Hg (Oct 21, 4:20 PM)
Average55 °F89%29.84 "Hg
* Reported Oct 10 7:20 PM — Oct 25 7:20 PM, Wittmund, Weather by CustomWeather, © 2014

Note: Actual official high and low records may vary slightly from our data, if they occured in-between our weather recording intervals... More about our weather records

Advertising

Wittmund weather history for previous 24 hours

 ConditionsComfort  
Time TempWeatherWind HumidityBarometerVisibility
7:20 PM
Oct 25
54 °FPassing clouds.6 mph72%30.07 "HgN/A
6:20 PM54 °FPartly sunny.5 mph77%30.07 "HgN/A
5:20 PM55 °FPartly sunny.5 mph72%30.07 "HgN/A
4:20 PM57 °FBroken clouds.8 mph72%30.07 "HgN/A
3:20 PM55 °FBroken clouds.8 mph88%30.04 "HgN/A
2:20 PM57 °FBroken clouds.9 mph82%30.04 "Hg6 mi
1:20 PM57 °FBroken clouds.8 mph82%30.04 "HgN/A
12:20 PM57 °FPartly sunny.10 mph82%30.04 "Hg5 mi
11:57 AM57 °FPartly sunny.10 mph88%30.01 "Hg4 mi
11:20 AM55 °FFog.10 mph94%30.01 "Hg3 mi
10:20 AM54 °FFog.9 mph100%30.01 "Hg2 mi
9:20 AM54 °FDrizzle. Fog.9 mph94%29.98 "Hg2 mi
8:20 AM52 °FFog.10 mph100%29.98 "Hg2 mi
7:20 AM52 °FFog.10 mph100%29.95 "Hg2 mi
6:20 AM52 °FFog.12 mph94%29.95 "Hg3 mi
5:20 AM52 °FPassing clouds.12 mph94%29.95 "Hg4 mi
4:50 AM52 °FPassing clouds.13 mph94%29.95 "Hg2 mi
4:20 AM52 °FPassing clouds.12 mph94%29.95 "Hg5 mi
3:20 AM52 °FPassing clouds.10 mph94%29.95 "Hg4 mi
2:20 AM52 °FPassing clouds.10 mph94%29.98 "Hg6 mi
1:20 AM52 °FPassing clouds.13 mph94%29.98 "HgN/A
12:20 AM52 °FPassing clouds.10 mph88%29.98 "HgN/A
11:20 PM
Oct 24
52 °FPartly cloudy.10 mph88%29.98 "HgN/A
10:20 PM52 °FRain. Passing clouds.10 mph88%30.01 "Hg5 mi
9:20 PM52 °FPassing clouds.10 mph94%30.01 "HgN/A
8:20 PM52 °FLight rain. Passing clouds.10 mph94%30.01 "Hg5 mi
Weather by CustomWeather, © 2014

See weather overviewHow to use our weather pages